Other Public Products
Issued by NWS Grand Forks, ND

Home | Current Version | Previous Version | Graphics & Text | Print | Product List | Glossary On
Versions: 1 2 3 4 5 6 7 8 9 10 11 12 13 14 15 16 17 18 19 20 21 22 23 24 25 26 27 28 29 30 31 32 33 34 35 36 37 38 39 40 41 42 43 44 45 46 47 48 49 50
000
FPUS83 KFGF 250710
OPUFGF
PRAIRIE TO PINES WEATHER ROUNDUP
NATIONAL WEATHER SERVICE EASTERN NORTH DAKOTA/GRAND FORKS ND
200 AM CDT SUN JUN 25 2017

 **SATELLITE DATA USED TO AUGMENT SKY COVER AT AUTOMATED STATIONS**
 *****  WEATHER ACROSS EASTERN NORTH DAKOTA  *****

CITY           SKY/WX    TMP DP  RH WIND       PRES   REMARKS
GRAND FORKS    FAIR      45  43  93 W6        30.18S
GRAND FORKS AF FAIR      46  41  85 NW6       30.19F
GRAND CITY NWS NOT AVBL
BUXTON         NOT AVBL
DEVILS LAKE    FAIR      45  43  93 NW6       30.23F
FARGO          CLOUDY    54  44  69 NW12      30.18S
WAHPETON ARPT  CLOUDY    48  41  76 W8        30.19S
$$

 *****  WEATHER ACROSS CENTRAL AND WESTERN NORTH DAKOTA  *****

CITY           SKY/WX    TMP DP  RH WIND       PRES   REMARKS
JAMESTOWN      FAIR      47  44  90 NW8       30.23S
BISMARCK       FAIR      43  39  86 SW3       30.29F
MINOT          MOCLDY    49  39  68 SW9       30.24S
MINOT AFB      MOCLDY    46  41  82 CALM      30.24R
GARRISON         N/A     40  36  86 CALM      30.26S
WILLISTON      MOCLDY    50  40  68 CALM      30.26F
DICKINSON      FAIR      40  32  73 S7        30.29S
HETTINGER      FAIR      38  30  73 N3        30.34S
$$

 *****  OTHER OBSERVATIONS NORTHEAST NORTH DAKOTA  *****

CITY           SKY/WX    TMP DP  RH WIND       PRES   REMARKS
WALHALLA       NOT AVBL
LANGDON        FAIR      41  41 100 NW3       30.22S
CAVALIER       NOT AVBL
GRAFTON        FAIR      46  43  87 NW8       30.21S
CANDO          NOT AVBL
FORT TOTTEN      N/A     50  46  86 NW3       29.95S
ROLLA            N/A     41  41 100 CALM      30.23F
RUGBY          NOT AVBL
 ***** THE ABOVE OBSERVATIONS ARE NON NWS ARE NOT QUALITY
        CONTROLLED AND MAY MIS-REPORT RAIN FOR SNOW...
$$

 *****  OTHER OBSERVATIONS SOUTHEAST NORTH DAKOTA *****

CITY           SKY/WX    TMP DP  RH WIND       PRES   REMARKS
COOPERSTOWN    FAIR      46  45  93 W7        30.23R
VALLEY CITY    FAIR      45  45 100 W7        30.23F
OAKES          NOT AVBL
GWINNER        CLOUDY    50  43  76 NW8       30.22S
SHEYENNE NWR     N/A     47  43  86 NW5       29.95S
BUFFALO        NOT AVBL
WYNDMERE       NOT AVBL
 ***** THE ABOVE OBSERVATIONS ARE NON NWS ARE NOT QUALITY
       CONTROLLED AND MAY MIS-REPORT RAIN FOR SNOW...
$$

  *****  WEATHER ACROSS NORTHERN MINNESOTA  *****

CITY           SKY/WX    TMP DP  RH WIND       PRES   REMARKS
FLAG ISLAND    CLOUDY    52  50  93 NW17      30.09S
WARROAD        LGT RAIN  48  46  93 NW12G17   30.13S
ROSEAU         LGT RAIN  50  45  81 NW10      30.14S
HALLOCK        FAIR      45  43  93 NW7       30.18S
THF RVR FALLS  CLOUDY    49  46  90 NW14      30.16S
HALSTAD        NOT AVBL
FOSSTON        CLOUDY    48  46  93 NW10G17   30.14S
BAUDETTE       LGT RAIN  53  51  93 NW10      30.08S
WASKISH        LGT RAIN  54  52  94 N8        30.08S
CROOKSTON      CLOUDY    50  45  81 NW9       30.18S
$$
  *****  WEATHER ACROSS CENTRAL AND WEST MINNESOTA  *****

CITY           SKY/WX    TMP DP  RH WIND       PRES   REMARKS
BEMIDJI        DRIZZLE   50  49  97 NW13G20   30.08S
PARK RAPIDS    CLOUDY    51  47  86 NW12      30.09S
WADENA         CLOUDY    48  46  93 NW15G23   30.10F
DETROIT LAKES  DRIZZLE   48  46  93 NW12G20   30.15S
MOORHEAD       CLOUDY    52  43  71 NW12G18   30.18S
FERGUS FALLS   CLOUDY    48  45  87 NW13      30.16S
ELBOW LAKE     CLOUDY    49  46  88 NW12      30.17S
MORRIS MN      CLOUDY    52  46  82 NW14G20   30.16F
STAPLES        CLOUDY    50  46  87 NW12      30.09S
WHEATON        FAIR      50  43  76 NW9       30.21S
$$
  *****  WEATHER ELSEWHERE ACROSS MINNESOTA  *****

CITY           SKY/WX    TMP DP  RH WIND       PRES   REMARKS
DULUTH         MOCLDY    52  50  93 NW7       29.99S
INTRNTL FALLS  CLOUDY    53  50  89 N7        30.04S
ELY            CLOUDY    54  52  94 N3        29.99F
CLOQUET        MOCLDY    52  46  82 W6        30.02R
BRAINERD       CLOUDY    53  49  86 NW12      30.07F
HIBBING        CLOUDY    51  50  96 NW3       30.01S
ALEXANDRIA     CLOUDY    50  48  93 NW14G24   30.14S
SAINT CLOUD    CLOUDY    54  49  83 NW10      30.09S
MINNEAPOLIS    MOCLDY    57  48  72 NW9       30.07F
$$

  *****  WEATHER ACROSS SOUTH DAKOTA  *****

CITY           SKY/WX    TMP DP  RH WIND       PRES   REMARKS
SIOUX FALLS    FAIR      50  45  83 W7        30.22F
BROOKINGS      FAIR      50  45  83 NW7       30.21F
WATERTOWN      CLOUDY    52  43  71 N10       30.21S
HURON          FAIR      45  43  93 NW6       30.26R
SISSETON         N/A     51  45  79 NW9       30.20S
ABERDEEN       MOCLDY    49  43  80 NW8       30.25S
MITCHELL       NOT AVBL
PIERRE         NOT AVBL
MOBRIDGE       FAIR      43  38  82 N7        30.28S
RAPID CITY     FAIR      44  32  62 W3        30.38S
$$

  *****  SOME WEATHER IN NEARBY STATES *****

CITY           SKY/WX    TMP DP  RH WIND       PRES   REMARKS
GLASGOW MT     FAIR      52  35  52 E8        30.27S
GREAT FALLS MT FAIR      55  42  61 CALM      30.33F
CHEYENNE WY    CLOUDY    53  37  54 CALM      30.41R
SCOTTSBLUFF NE FAIR      57  41  55 NE8       30.35R
OMAHA NE       FAIR      57  45  64 N5        30.23R
DES MOINES IA  FAIR      57  46  66 NW6       30.17S
DAVENPORT IA   FAIR      54  51  90 W5        30.12S
CHICAGO IL     FAIR      57  50  77 W8        30.05S
EAU CLAIRE WI  FAIR      51  47  86 W8        30.02F
LA CROSSE WI   FAIR      60  49  66 NW10      30.05F
$$

  *****  SOME NATIONAL WEATHER *****

CITY           SKY/WX    TMP DP  RH WIND       PRES   REMARKS
LA GUARDIA NY  CLOUDY    73  61  65 N8        29.91S
RALEIGH NC     MOCLDY    71  70  96 CALM      30.02F
ATLANTA GA     FAIR      71  69  93 N6        30.08F
NEW ORLEANS LA FAIR      75  74  96 CALM      30.08F
OKLAHOMA CITY  FAIR      66  56  70 SE7       30.26R
ALBUQUERQUE NM FAIR      72  53  51 E21       30.25S
SALT LAKE CITY FAIR      68  41  37 S5        30.16R
LOS ANGELES CA FAIR      64  61  90 W8        29.87S
BOISE ID       FAIR      66  42  41 SE5       30.09S
SEATTLE WA     FAIR      75  52  44 N15       29.98S
$$

*** WEATHER ACROSS MANITOBA...SASKATCHEWAN AND ONTARIO ***
                ***ONTARIO***

CITY           SKY/WX    TMP DP  RH WIND       PRES   REMARKS
GERALDTON      MOCLDY    52  43  71 NE10      29.99R
THUNDER BAY    NOT AVBL
SIOUX LOOKOUT  CLOUDY    50  46  87 N5        30.04S
TORONTO        PTCLDY    59  54  82 W6        29.92S
BIG TROUT LK   CLEAR     41  39  93 W3        30.05S
PICKLE LAKE    NOT AVBL
DRYDEN         MOCLDY    48  46  93 N6        30.05S
KENORA         MOCLDY    50  45  81 NW7       30.09S
$$
                *** MANITOBA***

CITY           SKY/WX    TMP DP  RH WIND       PRES   REMARKS
BRANDON        CLEAR     37  37 100 VRB2      30.22F
DAUPHIN        PTCLDY    46  45  93 W6        30.23S
ISLAND LAKE    MOCLDY    54  43  66 W12       30.10S
PILOT MOUND      N/A     39  39 100 NW2         N/A
THE PAS        CLEAR     43  41  93 CALM      30.21R
THOMPSON       PTCLDY    43  37  81 W3        30.13S
WINNIPEG       CLEAR     41  39  93 N7        30.18S
LYNN LAKE      MOCLDY    50  37  62 W7        30.17S
CHURCHILL      MOCLDY    50  43  76 W8        29.97F
GILLAM         MOCLDY    45  37  76 SW6       30.07F
$$
                ***SASKATCHEWAN***

CITY           SKY/WX    TMP DP  RH WIND       PRES   REMARKS
ESTEVAN        MOCLDY    52  48  87 SW3       30.25F
KINDERSLEY     PTCLDY    48  46  93 W5        30.26S
LLOYDMINSTER   CLEAR     46  46 100 W5        30.27S
PRINCE ALBERT  PTCLDY    46  45  93 NE2       30.28R
REGINA         MOCLDY    46  43  87 N3        30.25S
YORKTON        MOCLDY    45  43  93 NE2       30.24S


USA.gov is the U.S. government's official web portal to all federal, state and local government web resources and services.